C/2022 E2 ( ATLAS )

Japanese version
Home page
Updated on September 4, 2024

---------------------------------------------------------------------

* Profile

Discovery Date March 7, 2022
Magnitude 18.7 mag
Discoverer Asteroid Terrestrial-Impact Last Alert System (ATLAS) search program

* Pictures

* Orbital Elements

Epoch 2024 Oct. 17.0 TT = JDT 2460600.5
T 2024 Sept. 14.14024 TT                                Rudenko
q   3.6662724            (2000.0)            P               Q
z  -0.0002892      Peri.   41.73043     -0.03432598     +0.83137966
 +/-0.0000003      Node   125.38063     +0.63731062     -0.40928277
e   1.0010601      Incl.  137.13492     +0.76984213     +0.37589289
>From 2698 observations 2022 Feb. 23-2024 Aug. 31, mean residual 0".5.

* Finding Charts

* Magnitudes Graph

        m1 = 2.2 + 5 log d + 12.5 log r

---------------------------------------------------------------------

The orbital elements are published on M.P.E.C. 2024-R10.
The charts are made with StellaNavigator Ver.10 (AstroArts).
The magnitudes graphs are made with Comet for Windows.

---------------------------------------------------------------------

Copyright(C) Seiichi Yoshida (comet@aerith.net). All rights reserved.